Precipitable_Water
1.02 0.98 1.01 1.01 1.04 1.03 1.00 1.00 1.03 1.05 1.06 1.06 1.03 0.99 0.94 0.88 0.85 0.83 0.81 0.80 0.78 0.77 0.79 0.77 0.74 0.75 0.75 0.78 0.79 0.78 0.76 0.76 0.73 0.68 0.66 0.68 0.63 0.64 0.73 0.72 0.74 0.79 0.82 0.84 0.85 0.75 0.66 0.57 0.56 0.69 0.83 0.86 0.87 0.90 0.95 0.94 0.94 0.96 0.98 1.01 1.03 1.04 1.06
1.01 0.98 0.99 1.00 0.98 0.97 0.95 0.97 0.97 1.00 1.00 1.00 0.97 0.92 0.88 0.86 0.83 0.81 0.79 0.76 0.76 0.76 0.76 0.74 0.73 0.73 0.74 0.75 0.71 0.72 0.70 0.70 0.70 0.70 0.68 0.65 0.65 0.63 0.64 0.63 0.66 0.65 0.68 0.72 0.75 0.76 0.65 0.58 0.56 0.58 0.58 0.67 0.75 0.81 0.84 0.87 0.89 0.90 0.91 0.92 0.94 0.97 0.99
0.96 0.96 0.97 0.95 0.95 0.95 0.92 0.93 0.94 0.95 0.93 0.92 0.90 0.88 0.87 0.85 0.81 0.80 0.77 0.74 0.73 0.74 0.73 0.71 0.70 0.71 0.73 0.70 0.69 0.68 0.67 0.65 0.66 0.67 0.65 0.63 0.64 0.65 0.63 0.62 0.58 0.57 0.55 0.55 0.58 0.58 0.59 0.62 0.54 0.52 0.55 0.54 0.50 0.55 0.65 0.69 0.72 0.77 0.80 0.83 0.84 0.87 0.91
0.93 0.93 0.90 0.90 0.91 0.90 0.88 0.88 0.89 0.89 0.88 0.85 0.85 0.83 0.82 0.80 0.78 0.77 0.74 0.73 0.72 0.71 0.69 0.66 0.65 0.67 0.66 0.60 0.62 0.61 0.59 0.58 0.57 0.60 0.60 0.60 0.60 0.59 0.59 0.58 0.56 0.55 0.53 0.50 0.51 0.53 0.51 0.47 0.43 0.41 0.43 0.47 0.48 0.44 0.47 0.55 0.57 0.59 0.63 0.69 0.74 0.79 0.90
0.96 0.92 0.90 0.90 0.92 0.89 0.88 0.86 0.87 0.84 0.81 0.81 0.80 0.77 0.75 0.75 0.73 0.71 0.69 0.67 0.64 0.64 0.63 0.66 0.64 0.63 0.63 0.58 0.58 0.55 0.54 0.56 0.57 0.57 0.54 0.52 0.54 0.53 0.53 0.54 0.53 0.54 0.55 0.54 0.53 0.50 0.46 0.44 0.43 0.40 0.40 0.42 0.39 0.41 0.44 0.44 0.46 0.47 0.50 0.55 0.61 0.75 0.81
0.97 0.95 0.94 0.93 0.92 0.89 0.87 0.85 0.82 0.78 0.78 0.76 0.76 0.73 0.71 0.66 0.66 0.64 0.62 0.61 0.61 0.62 0.63 0.64 0.62 0.63 0.63 0.60 0.57 0.59 0.58 0.57 0.56 0.58 0.55 0.55 0.55 0.52 0.51 0.55 0.55 0.56 0.53 0.55 0.49 0.46 0.47 0.45 0.43 0.37 0.38 0.41 0.34 0.33 0.35 0.39 0.37 0.40 0.40 0.44 0.54 0.58 0.64
0.95 0.95 0.95 0.94 0.94 0.93 0.91 0.86 0.81 0.77 0.75 0.74 0.71 0.69 0.69 0.65 0.64 0.63 0.64 0.62 0.63 0.62 0.62 0.62 0.61 0.60 0.62 0.56 0.54 0.58 0.57 0.60 0.57 0.57 0.57 0.57 0.54 0.55 0.52 0.51 0.54 0.56 0.56 0.52 0.44 0.45 0.40 0.41 0.38 0.38 0.36 0.35 0.34 0.31 0.34 0.34 0.35 0.31 0.33 0.40 0.41 0.40 0.44
0.96 0.96 0.96 0.97 0.97 0.96 0.95 0.89 0.87 0.85 0.80 0.74 0.71 0.70 0.71 0.69 0.66 0.64 0.62 0.62 0.61 0.59 0.57 0.56 0.56 0.56 0.57 0.54 0.52 0.56 0.57 0.59 0.57 0.54 0.52 0.52 0.49 0.52 0.48 0.50 0.50 0.53 0.48 0.43 0.44 0.43 0.43 0.42 0.42 0.41 0.37 0.29 0.27 0.28 0.27 0.29 0.30 0.30 0.31 0.35 0.38 0.38 0.40
0.92 0.93 0.94 0.94 0.94 0.92 0.88 0.85 0.84 0.82 0.76 0.72 0.71 0.69 0.68 0.66 0.63 0.58 0.56 0.55 0.55 0.54 0.53 0.53 0.53 0.52 0.53 0.51 0.49 0.51 0.52 0.55 0.53 0.49 0.48 0.50 0.47 0.49 0.47 0.49 0.48 0.48 0.44 0.41 0.43 0.41 0.42 0.43 0.42 0.40 0.36 0.34 0.29 0.24 0.26 0.25 0.26 0.25 0.30 0.29 0.33 0.36 0.36
0.90 0.89 0.89 0.87 0.85 0.83 0.81 0.80 0.77 0.73 0.71 0.69 0.66 0.65 0.61 0.59 0.56 0.53 0.51 0.50 0.50 0.51 0.52 0.53 0.52 0.51 0.51 0.51 0.49 0.48 0.49 0.51 0.49 0.49 0.48 0.47 0.45 0.46 0.45 0.45 0.41 0.42 0.37 0.40 0.41 0.38 0.41 0.41 0.39 0.37 0.37 0.34 0.33 0.28 0.25 0.23 0.24 0.24 0.24 0.29 0.26 0.25 0.31
0.90 0.89 0.87 0.83 0.81 0.79 0.77 0.73 0.70 0.66 0.64 0.64 0.63 0.60 0.57 0.54 0.53 0.52 0.50 0.50 0.50 0.50 0.50 0.51 0.51 0.51 0.49 0.48 0.49 0.48 0.48 0.49 0.47 0.48 0.46 0.46 0.42 0.43 0.43 0.43 0.39 0.37 0.36 0.37 0.37 0.36 0.39 0.38 0.36 0.34 0.34 0.33 0.34 0.29 0.28 0.25 0.24 0.27 0.26 0.26 0.27 0.26 0.27
0.89 0.86 0.83 0.80 0.78 0.74 0.70 0.68 0.65 0.65 0.64 0.63 0.61 0.58 0.55 0.54 0.52 0.52 0.52 0.49 0.49 0.49 0.49 0.49 0.51 0.50 0.49 0.46 0.46 0.46 0.46 0.47 0.45 0.44 0.45 0.43 0.43 0.42 0.41 0.41 0.39 0.37 0.36 0.35 0.36 0.36 0.37 0.35 0.33 0.32 0.32 0.32 0.31 0.31 0.29 0.28 0.23 0.25 0.29 0.25 0.27 0.30 0.29
0.82 0.80 0.78 0.75 0.71 0.66 0.63 0.62 0.61 0.59 0.58 0.60 0.58 0.57 0.55 0.53 0.51 0.48 0.49 0.49 0.48 0.48 0.47 0.48 0.49 0.49 0.49 0.47 0.45 0.45 0.44 0.44 0.42 0.40 0.42 0.40 0.40 0.40 0.39 0.38 0.37 0.36 0.36 0.35 0.35 0.34 0.33 0.32 0.32 0.31 0.31 0.31 0.30 0.31 0.30 0.28 0.24 0.22 0.28 0.29 0.30 0.30 0.30
0.78 0.78 0.75 0.73 0.68 0.64 0.63 0.61 0.59 0.58 0.57 0.55 0.55 0.53 0.52 0.50 0.49 0.48 0.46 0.45 0.45 0.45 0.45 0.45 0.47 0.47 0.47 0.47 0.45 0.44 0.43 0.42 0.41 0.40 0.40 0.36 0.39 0.39 0.37 0.37 0.36 0.36 0.36 0.34 0.33 0.32 0.31 0.31 0.31 0.30 0.31 0.31 0.29 0.30 0.30 0.28 0.25 0.24 0.27 0.32 0.32 0.32 0.32
0.76 0.73 0.69 0.64 0.61 0.59 0.58 0.57 0.58 0.57 0.55 0.55 0.55 0.54 0.54 0.53 0.50 0.47 0.45 0.44 0.43 0.43 0.42 0.42 0.43 0.44 0.43 0.44 0.45 0.43 0.42 0.42 0.40 0.40 0.39 0.36 0.39 0.38 0.38 0.36 0.35 0.35 0.35 0.34 0.32 0.32 0.31 0.31 0.31 0.30 0.30 0.30 0.30 0.30 0.32 0.30 0.28 0.27 0.24 0.29 0.30 0.33 0.33
0.71 0.67 0.63 0.60 0.57 0.57 0.56 0.54 0.54 0.52 0.53 0.53 0.53 0.53 0.52 0.52 0.51 0.47 0.43 0.41 0.40 0.38 0.37 0.37 0.38 0.39 0.39 0.40 0.43 0.41 0.41 0.42 0.40 0.38 0.39 0.37 0.37 0.36 0.35 0.34 0.33 0.33 0.33 0.30 0.30 0.31 0.31 0.31 0.31 0.30 0.30 0.31 0.30 0.31 0.32 0.33 0.31 0.27 0.26 0.27 0.32 0.32 0.33
0.66 0.62 0.58 0.57 0.54 0.54 0.55 0.55 0.55 0.53 0.51 0.51 0.52 0.53 0.53 0.51 0.48 0.44 0.42 0.40 0.38 0.35 0.33 0.33 0.34 0.35 0.37 0.40 0.42 0.41 0.40 0.41 0.38 0.37 0.39 0.37 0.36 0.35 0.33 0.32 0.32 0.32 0.31 0.29 0.29 0.29 0.30 0.31 0.30 0.29 0.29 0.30 0.31 0.31 0.33 0.33 0.33 0.31 0.29 0.27 0.30 0.32 0.34
0.62 0.59 0.56 0.56 0.54 0.54 0.53 0.52 0.52 0.51 0.52 0.51 0.52 0.53 0.52 0.50 0.46 0.43 0.40 0.38 0.36 0.33 0.31 0.31 0.31 0.33 0.36 0.40 0.42 0.41 0.40 0.40 0.38 0.37 0.38 0.37 0.35 0.34 0.32 0.32 0.33 0.32 0.30 0.29 0.28 0.29 0.30 0.30 0.30 0.29 0.28 0.30 0.31 0.32 0.33 0.33 0.33 0.33 0.31 0.29 0.30 0.33 0.36
0.57 0.54 0.53 0.52 0.51 0.51 0.51 0.51 0.51 0.51 0.50 0.49 0.49 0.50 0.50 0.48 0.44 0.40 0.39 0.36 0.34 0.31 0.30 0.30 0.30 0.31 0.34 0.37 0.40 0.41 0.39 0.39 0.39 0.38 0.36 0.36 0.35 0.34 0.32 0.32 0.33 0.32 0.30 0.29 0.28 0.29 0.30 0.29 0.28 0.27 0.29 0.30 0.32 0.33 0.33 0.33 0.34 0.34 0.33 0.32 0.32 0.31 0.35
0.53 0.52 0.51 0.51 0.51 0.50 0.50 0.50 0.50 0.50 0.51 0.50 0.48 0.47 0.48 0.45 0.44 0.41 0.38 0.33 0.30 0.29 0.29 0.29 0.29 0.30 0.33 0.35 0.36 0.39 0.37 0.38 0.37 0.35 0.34 0.34 0.34 0.34 0.33 0.32 0.33 0.32 0.31 0.30 0.30 0.30 0.30 0.28 0.27 0.28 0.30 0.31 0.33 0.33 0.33 0.34 0.35 0.35 0.34 0.33 0.33 0.34 0.34
0.51 0.49 0.50 0.50 0.50 0.49 0.49 0.49 0.49 0.49 0.49 0.49 0.48 0.49 0.47 0.44 0.42 0.41 0.36 0.32 0.29 0.29 0.28 0.28 0.28 0.29 0.30 0.33 0.35 0.37 0.38 0.34 0.35 0.32 0.33 0.34 0.33 0.33 0.33 0.32 0.33 0.32 0.33 0.32 0.32 0.31 0.28 0.26 0.28 0.28 0.31 0.33 0.34 0.34 0.35 0.36 0.36 0.35 0.34 0.34 0.33 0.33 0.35
0.51 0.50 0.50 0.50 0.48 0.48 0.46 0.45 0.45 0.46 0.48 0.49 0.51 0.50 0.48 0.44 0.41 0.37 0.34 0.32 0.29 0.28 0.27 0.27 0.28 0.27 0.28 0.30 0.32 0.34 0.35 0.35 0.33 0.32 0.31 0.33 0.33 0.33 0.32 0.32 0.33 0.33 0.34 0.33 0.32 0.29 0.28 0.29 0.30 0.29 0.32 0.34 0.35 0.35 0.36 0.36 0.36 0.35 0.35 0.34 0.34 0.36 0.35
0.50 0.49 0.48 0.47 0.47 0.46 0.45 0.45 0.46 0.47 0.47 0.48 0.48 0.47 0.44 0.41 0.36 0.32 0.31 0.30 0.28 0.26 0.25 0.26 0.27 0.28 0.29 0.29 0.31 0.33 0.34 0.34 0.34 0.32 0.30 0.32 0.32 0.32 0.31 0.31 0.32 0.33 0.31 0.32 0.30 0.27 0.28 0.29 0.31 0.33 0.34 0.35 0.36 0.36 0.37 0.37 0.36 0.37 0.36 0.35 0.35 0.35 0.34
0.49 0.48 0.48 0.46 0.45 0.45 0.46 0.46 0.46 0.46 0.46 0.46 0.45 0.44 0.43 0.40 0.35 0.31 0.28 0.27 0.26 0.25 0.24 0.25 0.26 0.26 0.27 0.29 0.30 0.31 0.32 0.32 0.33 0.32 0.31 0.31 0.30 0.30 0.30 0.30 0.31 0.31 0.31 0.31 0.30 0.28 0.28 0.29 0.30 0.33 0.35 0.37 0.39 0.38 0.37 0.36 0.37 0.39 0.37 0.37 0.38 0.37 0.37
0.47 0.45 0.45 0.45 0.44 0.44 0.44 0.44 0.44 0.43 0.43 0.43 0.43 0.44 0.43 0.41 0.38 0.31 0.27 0.25 0.23 0.23 0.23 0.24 0.24 0.25 0.26 0.27 0.29 0.31 0.33 0.32 0.33 0.32 0.30 0.30 0.30 0.30 0.29 0.29 0.30 0.31 0.31 0.32 0.32 0.30 0.28 0.29 0.29 0.31 0.34 0.37 0.38 0.39 0.40 0.40 0.39 0.38 0.39 0.38 0.38 0.39 0.40
0.45 0.44 0.44 0.43 0.44 0.43 0.43 0.41 0.41 0.40 0.40 0.42 0.43 0.42 0.43 0.44 0.41 0.34 0.27 0.23 0.22 0.21 0.21 0.22 0.23 0.24 0.25 0.26 0.27 0.31 0.33 0.33 0.32 0.31 0.31 0.29 0.31 0.29 0.30 0.29 0.29 0.30 0.31 0.32 0.32 0.29 0.28 0.29 0.30 0.31 0.33 0.35 0.37 0.38 0.39 0.40 0.43 0.43 0.43 0.41 0.41 0.41 0.42
0.46 0.45 0.43 0.43 0.42 0.41 0.40 0.38 0.38 0.38 0.38 0.39 0.39 0.40 0.41 0.41 0.41 0.36 0.30 0.25 0.22 0.21 0.21 0.21 0.21 0.23 0.25 0.26 0.28 0.29 0.31 0.33 0.32 0.32 0.29 0.30 0.30 0.30 0.30 0.29 0.28 0.29 0.30 0.31 0.29 0.28 0.28 0.29 0.29 0.30 0.32 0.33 0.35 0.37 0.39 0.40 0.41 0.43 0.46 0.46 0.45 0.43 0.46
0.44 0.44 0.43 0.43 0.41 0.39 0.38 0.39 0.39 0.40 0.40 0.40 0.38 0.36 0.36 0.38 0.39 0.39 0.34 0.30 0.24 0.21 0.20 0.19 0.19 0.20 0.22 0.25 0.28 0.29 0.28 0.30 0.30 0.32 0.31 0.29 0.32 0.33 0.30 0.30 0.29 0.29 0.30 0.30 0.29 0.27 0.27 0.28 0.29 0.30 0.31 0.32 0.34 0.36 0.37 0.39 0.40 0.42 0.46 0.49 0.49 0.49 0.50
0.44 0.43 0.42 0.41 0.39 0.38 0.39 0.39 0.38 0.38 0.38 0.37 0.37 0.36 0.34 0.34 0.35 0.37 0.38 0.34 0.29 0.22 0.20 0.19 0.18 0.18 0.19 0.22 0.26 0.27 0.26 0.25 0.28 0.31 0.32 0.30 0.30 0.32 0.31 0.29 0.30 0.29 0.29 0.29 0.28 0.27 0.27 0.29 0.28 0.28 0.28 0.30 0.33 0.36 0.38 0.40 0.42 0.45 0.49 0.51 0.52 0.53 0.53
0.43 0.42 0.40 0.39 0.38 0.38 0.38 0.37 0.38 0.38 0.37 0.37 0.36 0.34 0.31 0.29 0.28 0.30 0.33 0.35 0.32 0.25 0.22 0.21 0.18 0.18 0.18 0.20 0.23 0.25 0.26 0.23 0.24 0.28 0.30 0.32 0.30 0.32 0.32 0.31 0.31 0.30 0.29 0.28 0.27 0.27 0.27 0.28 0.28 0.28 0.28 0.29 0.32 0.35 0.36 0.40 0.43 0.46 0.50 0.52 0.53 0.54 0.54
0.41 0.41 0.40 0.39 0.38 0.39 0.39 0.39 0.39 0.40 0.38 0.37 0.37 0.36 0.35 0.31 0.28 0.25 0.25 0.26 0.31 0.27 0.24 0.23 0.20 0.18 0.18 0.19 0.21 0.23 0.25 0.22 0.21 0.23 0.27 0.31 0.32 0.31 0.32 0.33 0.31 0.29 0.28 0.26 0.26 0.27 0.28 0.28 0.27 0.28 0.28 0.29 0.32 0.33 0.35 0.39 0.42 0.45 0.50 0.51 0.51 0.53 0.54
0.41 0.40 0.40 0.39 0.40 0.39 0.39 0.38 0.38 0.39 0.38 0.38 0.38 0.38 0.36 0.35 0.33 0.31 0.28 0.27 0.27 0.28 0.27 0.25 0.22 0.19 0.19 0.20 0.20 0.21 0.23 0.21 0.19 0.20 0.24 0.27 0.30 0.30 0.31 0.33 0.31 0.29 0.28 0.26 0.27 0.27 0.28 0.28 0.28 0.28 0.29 0.31 0.32 0.32 0.35 0.39 0.40 0.42 0.46 0.47 0.49 0.52 0.53
0.41 0.40 0.39 0.39 0.39 0.39 0.38 0.39 0.40 0.39 0.38 0.36 0.34 0.32 0.32 0.31 0.32 0.34 0.35 0.33 0.31 0.30 0.28 0.26 0.24 0.20 0.20 0.20 0.21 0.21 0.23 0.20 0.19 0.18 0.21 0.24 0.26 0.29 0.27 0.28 0.30 0.30 0.27 0.27 0.27 0.28 0.28 0.28 0.28 0.29 0.30 0.31 0.31 0.31 0.37 0.39 0.42 0.44 0.45 0.47 0.49 0.51 0.53
0.41 0.40 0.40 0.40 0.40 0.40 0.41 0.41 0.40 0.39 0.37 0.36 0.35 0.35 0.35 0.36 0.35 0.35 0.35 0.35 0.36 0.34 0.31 0.28 0.24 0.21 0.19 0.20 0.20 0.21 0.21 0.21 0.20 0.19 0.22 0.24 0.26 0.26 0.26 0.27 0.28 0.27 0.27 0.28 0.28 0.28 0.28 0.28 0.28 0.29 0.31 0.31 0.32 0.35 0.39 0.40 0.41 0.44 0.46 0.48 0.49 0.51 0.52
0.42 0.41 0.40 0.39 0.39 0.39 0.40 0.39 0.37 0.36 0.36 0.35 0.36 0.37 0.37 0.36 0.34 0.34 0.35 0.35 0.35 0.35 0.31 0.28 0.26 0.22 0.19 0.19 0.20 0.21 0.20 0.21 0.21 0.21 0.22 0.23 0.25 0.26 0.26 0.26 0.26 0.27 0.28 0.28 0.28 0.28 0.28 0.28 0.27 0.29 0.30 0.32 0.33 0.34 0.37 0.40 0.41 0.43 0.46 0.47 0.48 0.49 0.50
0.41 0.40 0.39 0.40 0.39 0.39 0.41 0.42 0.41 0.39 0.37 0.37 0.36 0.34 0.34 0.34 0.32 0.31 0.32 0.32 0.33 0.34 0.32 0.29 0.25 0.23 0.20 0.19 0.20 0.19 0.20 0.20 0.21 0.23 0.23 0.23 0.25 0.25 0.27 0.28 0.28 0.28 0.27 0.27 0.27 0.27 0.27 0.27 0.27 0.28 0.28 0.30 0.32 0.34 0.36 0.37 0.39 0.42 0.44 0.46 0.47 0.47 0.49
0.41 0.40 0.39 0.39 0.38 0.38 0.39 0.39 0.40 0.42 0.41 0.39 0.37 0.35 0.32 0.32 0.31 0.30 0.31 0.30 0.32 0.33 0.34 0.31 0.26 0.22 0.20 0.19 0.20 0.19 0.20 0.21 0.22 0.23 0.25 0.26 0.26 0.26 0.26 0.26 0.27 0.27 0.27 0.27 0.27 0.27 0.26 0.26 0.26 0.26 0.27 0.29 0.30 0.32 0.35 0.35 0.37 0.41 0.43 0.44 0.45 0.46 0.48
Wind_Speed
9 9 10 10 10 10 11 11 12 12 13 13 14 15 15 15 15 15 15 16 16 17 17 18 18 19 19 20 20 21 21 22 22 22 23 23 23 24 25 25 26 27 27 27 27 28 28 28 27 27 27 27 27 26 26 26 26 26 26 26 26 27 27
9 10 10 10 10 11 11 12 12 13 13 14 14 14 14 15 15 15 16 16 17 17 18 18 19 20 20 21 21 22 22 22 23 23 23 24 24 24 25 26 26 27 27 27 28 28 29 29 29 28 28 29 28 28 28 28 28 27 27 27 27 27 28
9 10 10 10 11 11 12 12 13 14 14 15 14 14 15 15 15 16 16 17 17 18 18 19 20 20 21 21 22 22 22 23 23 23 24 24 25 25 26 26 27 27 27 27 28 29 29 29 30 30 30 29 29 29 29 29 29 29 29 29 28 28 28
10 11 11 11 11 12 12 13 14 14 15 15 15 15 15 16 16 17 17 17 18 19 19 20 20 21 21 21 22 22 22 23 23 23 24 25 25 26 26 27 27 27 27 28 28 29 29 29 30 31 31 31 30 30 30 30 31 30 30 29 28 28 28
11 11 12 12 12 12 13 14 14 14 15 15 15 16 16 16 17 17 18 18 19 19 20 20 20 21 21 21 22 22 22 23 23 24 24 25 26 26 27 27 27 27 27 28 28 29 29 29 30 31 31 31 31 31 31 31 30 30 30 29 29 29 30
11 12 12 12 13 13 14 14 14 15 15 16 16 16 16 17 17 18 18 19 19 20 20 20 21 21 21 22 22 22 23 23 24 24 25 26 26 27 27 27 27 28 28 28 28 29 29 30 30 31 31 32 32 32 32 31 30 30 30 29 29 30 31
11 12 12 13 13 14 15 15 15 15 16 16 16 17 17 17 18 18 19 19 19 20 20 21 21 21 22 22 23 23 23 24 24 25 25 26 27 27 27 27 27 27 28 28 29 29 30 30 31 32 32 33 33 33 32 31 31 30 30 30 30 31 31
11 12 12 13 14 14 15 15 15 16 16 16 16 17 17 18 18 18 19 19 19 20 20 21 21 22 22 22 23 23 23 24 25 25 26 26 27 27 27 27 28 28 29 29 29 29 30 30 31 32 33 33 33 33 33 32 32 31 31 31 31 31 31
11 11 12 13 13 14 14 14 15 15 15 16 16 17 17 18 18 18 18 19 19 20 20 21 21 22 22 22 23 23 24 25 25 26 26 27 27 27 28 28 28 29 30 30 30 30 30 30 31 32 33 34 34 34 34 33 32 32 33 33 32 32 32
10 11 11 12 13 13 13 14 14 14 15 15 16 16 17 17 17 18 18 19 19 20 20 21 21 22 22 22 23 23 24 25 25 26 27 27 27 27 28 29 29 29 30 30 30 30 30 31 32 32 33 33 34 35 35 35 33 33 33 34 34 34 34
10 11 11 12 12 13 13 13 14 14 14 15 15 16 16 17 17 18 18 19 19 20 20 21 21 21 22 22 23 23 24 25 26 26 27 27 28 28 28 29 29 29 30 30 30 30 31 31 32 32 33 33 34 35 36 36 35 34 35 35 35 36 35
11 11 11 12 12 13 13 13 13 13 14 14 15 16 16 17 17 18 18 19 19 19 20 20 21 21 22 22 23 23 24 25 26 26 27 28 28 28 28 28 29 29 30 30 30 31 31 32 32 33 33 33 34 35 36 37 37 36 36 37 37 37 37
11 11 11 12 12 12 12 12 13 13 14 14 15 15 16 16 17 17 18 18 19 19 20 20 21 21 22 22 23 24 24 25 26 26 27 27 28 28 28 28 29 29 30 30 31 31 32 32 33 33 34 34 35 36 36 37 38 38 38 38 38 38 38
11 11 12 12 12 12 12 12 13 13 14 14 15 15 15 16 17 17 17 18 19 19 20 20 21 21 22 23 23 24 25 26 26 26 27 27 28 28 28 29 29 30 31 31 32 32 33 34 34 35 35 36 36 37 38 38 39 40 39 39 39 39 39
11 12 12 12 12 12 12 13 13 13 14 14 14 15 15 16 16 17 17 18 19 19 20 20 21 21 22 23 24 25 25 26 26 26 27 27 28 28 28 29 30 31 32 32 33 33 34 35 35 36 36 37 38 38 38 39 40 41 41 40 40 40 39
12 11 12 12 12 12 12 13 13 14 14 14 14 15 15 16 16 17 17 18 19 19 20 21 21 22 22 23 24 25 25 25 26 26 27 27 28 29 29 29 30 32 32 33 33 34 35 35 36 37 38 38 38 39 39 39 40 41 42 41 40 40 40
12 12 12 12 12 12 13 13 13 13 14 14 14 15 15 16 16 17 17 18 19 19 20 21 22 22 23 23 24 25 25 25 26 27 27 28 28 29 29 30 31 32 33 33 34 34 35 36 37 38 39 39 39 39 39 39 40 41 42 42 41 41 41
12 12 12 12 12 12 13 13 13 13 14 14 14 15 15 16 16 17 17 18 19 20 21 21 22 23 23 23 24 25 25 26 26 27 27 28 28 29 30 30 31 32 33 33 35 35 36 37 38 39 39 39 39 39 40 40 41 41 42 43 42 42 42
12 12 12 12 12 13 13 13 13 14 14 14 14 15 15 15 16 16 17 18 19 20 21 21 22 23 24 24 24 25 26 26 26 27 28 28 29 29 30 30 31 32 33 34 35 36 37 38 39 39 40 40 39 40 40 41 41 42 43 43 43 43 42
12 12 13 13 13 13 13 13 13 13 14 14 14 14 14 15 15 16 17 18 19 20 21 22 23 23 24 24 24 25 26 26 26 27 28 28 29 30 30 31 31 32 33 34 35 36 38 39 39 40 40 39 39 40 41 41 42 43 43 43 43 44 43
13 13 13 13 13 13 13 13 13 13 13 13 14 14 14 14 15 16 17 18 19 21 21 22 23 24 24 25 25 25 25 26 26 27 28 28 29 30 30 31 32 32 33 34 35 37 38 39 39 39 39 39 39 40 41 41 42 42 42 43 43 43 43
13 13 13 13 13 13 13 13 13 13 13 13 13 13 14 14 15 16 17 18 20 21 22 22 23 24 24 24 25 25 25 26 27 27 28 28 29 30 30 31 32 33 34 34 35 37 38 38 38 38 38 38 39 40 41 41 42 42 43 43 43 43 43
13 13 13 13 13 13 13 13 12 12 12 12 12 13 13 14 15 16 18 19 20 21 22 22 23 24 24 24 24 24 25 26 26 27 28 28 29 30 31 31 32 33 34 34 35 36 37 37 38 37 37 38 40 41 42 43 43 43 44 44 44 44 44
14 13 13 13 13 12 12 12 12 12 12 12 12 12 13 14 15 17 18 19 20 21 22 23 24 24 25 25 24 24 25 26 26 27 29 29 29 30 31 31 32 33 33 34 34 35 37 37 38 38 38 38 40 41 43 43 44 44 44 44 44 44 44
14 13 13 13 12 12 12 11 11 11 11 12 12 13 14 15 15 16 18 19 20 21 22 23 24 24 24 25 25 25 25 26 27 28 29 29 30 30 31 31 32 32 33 33 34 36 37 37 39 39 38 39 40 41 43 43 43 44 44 44 44 44 44
13 13 12 12 12 11 11 11 11 11 11 12 12 13 14 15 15 16 17 19 20 21 22 23 24 24 24 25 26 25 26 27 27 28 29 30 30 30 30 31 31 32 32 33 34 36 37 37 39 39 39 39 40 42 43 43 42 43 43 43 43 43 43
13 13 12 11 11 11 11 11 11 11 11 12 13 13 14 14 15 16 17 19 20 21 22 23 24 24 25 26 26 26 26 27 28 28 29 30 30 29 29 30 31 31 32 33 35 37 37 38 39 39 40 40 40 41 42 42 42 42 42 42 42 42 42
13 12 11 11 11 11 11 11 11 11 12 12 13 13 14 14 15 16 17 18 19 21 22 23 24 24 25 26 27 27 27 27 28 28 29 30 29 28 29 30 30 31 32 34 36 37 37 38 39 40 40 41 41 41 41 41 41 41 41 41 40 40 40
13 12 11 11 11 11 11 11 11 12 12 12 13 13 13 14 15 16 17 18 19 20 22 23 24 24 26 27 27 27 27 27 28 27 28 29 28 27 28 29 29 30 32 35 37 38 38 38 40 40 41 41 41 41 40 40 40 41 40 39 38 38 39
12 12 11 11 11 11 11 11 12 12 12 13 13 13 13 14 15 16 17 18 19 20 21 23 24 25 26 27 27 27 27 27 27 26 27 27 27 27 28 28 29 31 33 35 37 38 38 39 40 41 41 41 41 40 39 39 40 40 39 38 38 38 39
12 12 11 11 11 11 11 12 12 12 13 13 13 13 14 15 15 16 17 17 18 19 21 23 24 25 26 27 27 26 27 27 27 26 25 26 27 27 27 28 30 32 34 36 37 38 39 39 40 41 41 41 40 39 39 39 39 38 36 36 37 38 38
13 12 12 12 11 11 12 12 12 12 13 13 13 13 14 15 16 16 17 17 19 19 20 22 24 25 26 26 27 26 26 26 26 26 25 25 26 27 27 28 30 33 34 36 37 38 39 39 39 40 40 40 39 39 38 38 38 36 35 35 36 36 37
13 13 12 12 12 12 12 12 12 13 13 13 13 13 14 15 16 16 17 18 19 20 21 22 23 24 25 26 26 26 25 25 25 26 25 25 26 27 28 28 30 32 34 36 37 38 39 39 39 39 39 39 38 38 37 37 37 35 35 35 36 36 35
13 13 13 12 12 12 12 12 12 12 12 13 13 13 14 15 15 16 17 18 18 19 21 22 23 24 25 25 25 25 24 24 25 26 25 25 26 27 28 28 30 32 34 35 37 37 38 38 39 38 38 38 38 37 36 35 35 35 35 36 35 34 34
14 13 13 12 12 12 12 12 12 12 12 12 13 13 14 14 15 16 16 17 18 19 20 21 22 23 24 24 24 24 23 24 25 25 25 25 26 26 27 28 30 32 34 35 36 37 37 38 38 38 38 38 37 36 34 33 33 35 36 36 34 33 33
14 14 13 13 12 12 12 12 12 12 12 12 12 13 13 14 14 15 15 16 17 18 20 21 22 22 23 23 23 23 23 24 25 25 25 25 25 26 27 28 30 32 33 34 35 36 36 37 37 38 38 38 37 35 33 32 33 35 37 36 33 32 33
14 14 13 12 12 12 12 11 12 12 13 12 12 12 13 14 14 14 15 16 17 18 18 19 21 21 22 22 22 22 23 24 24 24 24 24 25 26 28 29 30 32 33 34 34 35 35 36 37 38 38 37 36 34 32 32 33 35 36 34 32 32 34
Wind_Direction
259 262 265 269 272 274 279 285 289 293 297 299 300 301 303 304 305 306 307 307 306 307 309 309 310 311 311 312 312 313 313 313 313 313 313 313 313 312 312 311 310 310 310 310 309 309 309 308 306 305 303 302 301 300 299 299 298 298 297 296 295 294 293
263 266 268 271 272 274 278 284 287 291 295 297 299 301 302 304 304 305 306 306 306 307 308 308 309 309 310 311 312 312 312 312 312 311 311 311 311 311 312 311 311 311 311 310 310 310 309 308 307 306 304 303 300 298 299 298 297 297 296 295 294 294 293
267 270 271 272 274 276 279 284 287 290 293 296 298 300 302 304 304 304 304 305 306 307 308 308 308 308 309 310 311 311 312 312 311 310 311 311 311 311 311 311 311 311 311 310 310 310 308 306 305 305 305 304 301 299 298 298 297 296 294 293 293 293 293
269 270 271 271 274 278 281 285 287 289 292 294 297 299 301 303 304 305 305 305 306 306 307 307 308 308 309 310 310 310 311 311 311 311 311 311 311 311 312 312 312 311 310 309 309 308 306 305 304 304 304 303 302 300 298 298 297 296 295 294 292 290 292
269 270 271 272 276 280 283 286 288 290 292 294 296 298 300 302 304 304 305 305 305 306 306 307 309 308 309 310 309 309 310 311 312 312 312 313 312 313 313 312 312 311 310 309 308 308 306 305 304 303 303 302 301 299 299 299 298 297 295 295 292 290 290
272 274 274 276 280 283 285 287 289 290 292 293 294 297 298 301 302 302 304 304 305 306 307 308 309 309 309 309 309 309 310 312 312 312 312 313 313 313 312 312 311 311 310 309 308 308 307 306 305 303 303 302 300 299 300 299 298 297 296 295 293 292 290
276 277 278 279 282 284 285 288 290 291 292 292 293 295 297 299 301 302 304 305 306 307 308 308 308 309 310 309 309 310 310 311 312 312 312 312 312 312 312 312 311 310 310 309 309 308 307 306 305 304 303 302 300 299 299 299 298 297 296 295 294 293 291
277 278 280 281 283 284 285 289 291 291 292 292 293 295 297 299 301 303 305 305 306 307 307 308 308 309 310 309 309 310 310 310 311 311 311 312 312 312 312 312 312 311 310 309 309 309 308 307 306 305 304 302 300 299 298 298 298 297 296 295 294 293 292
279 280 282 284 285 287 289 291 292 291 292 294 295 297 299 301 302 303 305 305 306 306 307 308 308 309 309 310 310 310 311 310 310 311 312 312 313 313 313 313 312 311 310 310 310 310 309 308 307 306 305 303 301 299 298 297 297 296 297 296 294 292 292
280 282 285 287 290 292 293 294 294 294 295 297 298 299 300 301 303 304 304 305 306 306 307 308 309 310 310 310 310 310 311 311 310 312 313 313 313 313 313 313 312 311 311 311 311 311 310 309 307 306 305 304 302 300 299 297 296 296 296 296 294 293 293
282 286 289 291 293 295 295 295 296 297 299 300 301 301 301 302 303 304 304 304 306 307 308 309 310 311 311 310 310 311 311 311 311 312 313 313 314 314 314 314 313 313 313 312 311 311 310 309 308 307 306 304 303 301 299 297 295 295 296 295 295 294 293
286 290 293 294 296 297 297 297 299 300 301 302 302 302 301 302 302 303 304 305 307 308 309 310 311 311 311 311 311 312 312 313 313 313 314 314 314 314 314 314 314 314 314 313 312 311 311 310 309 308 307 306 305 302 300 298 295 295 296 295 294 295 294
288 292 296 299 300 301 300 300 301 302 302 302 302 302 302 303 304 305 306 307 308 309 310 310 311 311 312 313 313 314 314 315 315 315 315 315 315 315 315 315 315 314 314 313 312 312 311 311 311 310 309 307 306 304 302 299 295 295 296 295 294 294 294
290 295 298 300 301 302 301 302 302 302 302 302 302 303 304 306 307 308 309 309 310 310 310 311 312 313 314 314 315 316 316 316 316 316 316 316 316 316 316 316 315 315 314 314 313 312 312 312 312 311 309 307 305 304 302 299 296 295 295 295 294 293 294
292 295 298 299 300 301 302 302 303 302 302 302 303 304 305 307 309 309 310 311 312 312 313 314 314 314 315 315 315 316 316 316 316 316 316 316 317 316 316 316 316 315 314 314 314 313 313 313 312 310 309 306 305 303 301 299 297 295 294 294 293 292 292
290 294 296 298 299 301 302 302 302 301 301 302 303 305 307 308 310 310 312 312 313 314 315 316 316 316 316 317 316 316 316 316 316 317 317 317 317 317 316 317 316 315 315 315 315 314 313 313 312 310 309 307 305 304 302 300 298 296 295 294 293 292 291
288 291 293 296 297 299 300 301 301 301 301 301 303 306 308 309 310 311 313 314 315 316 317 317 318 317 317 317 317 317 317 317 317 317 317 317 317 317 317 317 317 316 316 316 316 315 314 314 313 312 310 309 307 305 303 302 300 298 296 294 294 292 291
285 288 290 293 296 298 299 299 300 300 300 301 302 305 307 309 311 313 314 316 317 318 319 319 319 318 317 318 318 318 318 318 318 318 318 318 318 318 318 318 318 318 317 317 317 316 315 315 314 313 312 310 308 307 305 304 302 300 298 296 295 293 292
282 284 288 292 295 297 298 299 300 300 300 301 303 304 307 310 313 315 317 318 319 320 321 321 321 320 319 318 319 318 318 318 318 319 319 319 319 319 319 319 319 319 319 318 318 317 317 317 316 315 313 312 310 308 307 305 303 301 299 297 296 294 293
280 283 288 291 294 296 297 298 298 299 300 302 304 306 309 312 314 317 319 320 321 321 322 322 322 322 320 319 319 319 319 319 319 319 319 319 319 320 320 320 320 320 320 320 319 319 319 318 317 316 315 313 312 310 308 306 304 302 300 298 297 295 293
278 283 287 290 293 294 296 297 297 298 299 302 305 307 310 313 316 319 320 321 323 323 323 323 324 323 321 320 319 319 320 320 320 320 320 320 320 320 321 321 321 321 322 321 320 321 321 320 319 317 316 315 313 312 310 309 307 305 303 301 299 297 295
278 282 285 288 292 293 294 295 295 297 299 301 305 307 309 313 316 319 321 322 323 325 325 324 324 323 322 321 321 321 321 320 320 321 321 321 321 322 322 322 323 323 323 322 322 323 324 323 322 319 318 317 316 314 313 311 310 307 305 303 301 299 296
276 281 284 287 289 290 291 292 294 296 299 301 304 306 309 313 317 320 322 323 324 325 325 324 324 323 323 322 322 322 321 321 321 322 323 322 322 323 323 323 324 324 324 324 324 325 326 326 325 322 320 320 319 317 315 314 312 310 307 305 302 300 298
275 278 282 285 286 287 288 291 293 296 298 299 302 305 308 312 317 321 323 324 325 326 325 324 324 325 325 324 324 323 323 323 323 323 324 324 324 324 324 324 324 324 324 325 325 326 327 327 327 325 323 322 321 320 319 316 314 312 310 307 305 303 300
273 276 280 282 283 284 286 289 292 294 297 298 301 305 307 311 315 321 324 325 326 326 326 326 326 326 326 326 326 325 325 325 325 325 325 325 325 325 325 325 325 325 326 326 327 327 327 328 329 328 325 323 322 322 322 319 317 315 313 310 307 305 303
271 275 277 278 279 282 284 287 290 293 296 299 302 305 307 309 312 318 323 325 326 327 327 327 328 328 328 328 329 328 326 326 326 326 326 326 326 326 326 326 327 327 328 329 329 329 329 328 329 329 327 324 323 323 323 321 320 318 316 313 310 307 305
269 272 273 275 277 279 281 284 288 292 296 300 303 305 307 309 311 316 321 324 326 327 327 329 330 330 330 330 330 330 328 327 327 326 327 327 327 327 328 329 329 329 330 331 331 331 330 330 331 330 329 327 325 324 324 323 322 321 319 317 313 310 308
266 268 270 272 274 275 278 283 287 291 296 299 303 305 307 310 313 315 317 321 324 327 328 331 332 332 332 332 332 331 330 328 327 327 328 329 328 329 330 331 331 332 332 332 333 333 332 332 332 331 330 329 327 326 326 325 324 323 321 319 317 314 312
261 264 266 268 270 272 277 282 286 290 295 298 301 304 309 314 315 315 316 318 323 327 330 333 334 334 335 334 332 332 331 329 329 328 329 331 331 331 332 333 333 334 334 334 334 335 334 334 333 333 332 331 330 328 327 327 326 325 324 322 320 319 317
257 260 262 264 267 271 276 282 286 290 294 296 300 304 309 315 318 318 318 318 322 327 330 334 336 336 336 335 333 333 333 332 331 331 331 332 333 333 333 335 336 336 336 335 336 336 336 336 335 334 333 333 332 330 329 329 329 328 326 325 324 324 323
255 257 260 262 265 270 276 281 285 289 292 294 298 302 307 313 317 320 322 323 325 327 330 334 336 337 336 336 334 334 334 335 334 333 333 334 335 335 334 336 337 337 337 337 338 338 338 337 336 336 335 335 334 332 332 332 333 331 330 329 329 328 327
253 256 257 259 264 269 275 281 286 289 292 294 297 301 305 310 314 317 321 325 328 329 330 333 336 337 336 336 336 335 335 336 337 336 335 335 337 337 336 336 338 338 338 339 340 340 339 339 338 337 337 337 336 335 336 336 336 336 334 333 333 332 330
252 254 256 258 263 269 275 280 285 289 292 294 297 301 306 310 312 315 318 322 325 328 330 332 334 336 336 336 336 337 337 338 339 339 337 337 338 339 338 338 338 339 340 341 341 341 342 341 341 340 340 340 339 339 339 340 340 340 340 338 336 334 333
251 253 255 258 263 269 275 279 284 287 291 293 296 301 306 309 311 314 316 318 320 325 329 332 334 336 336 336 337 338 338 340 341 340 340 340 340 340 340 341 341 341 342 342 342 343 343 343 343 343 343 343 342 342 342 342 343 345 344 341 339 338 338
249 251 254 258 263 269 274 279 283 288 291 294 298 302 305 308 311 314 315 317 320 324 329 332 334 335 336 337 338 340 341 341 342 342 342 342 342 342 343 343 344 343 343 343 344 345 345 345 346 346 346 345 344 343 343 345 346 347 347 345 343 343 343
247 250 253 258 262 266 271 277 282 286 290 294 298 303 306 310 312 313 315 319 322 326 329 332 335 336 337 338 340 342 343 344 344 344 345 345 345 345 345 345 345 344 344 345 346 347 347 348 349 349 349 348 347 346 346 348 349 350 349 348 348 348 348
245 248 252 256 261 266 270 275 279 282 286 291 298 303 307 310 311 314 318 322 325 327 329 331 334 338 339 340 342 344 345 346 346 346 348 349 347 347 347 347 346 346 346 347 348 349 350 351 352 352 351 351 350 350 350 351 352 353 353 352 352 352 351